Date,TemperatureHighF,TemperatureAvgF,TemperatureLowF,DewpointHighF,DewpointAvgF,DewpointLowF,HumidityHigh,HumidityAvg,HumidityLow,PressureMaxIn,PressureMinIn,WindSpeedMaxMPH,WindSpeedAvgMPH,GustSpeedMaxMPH,PrecipitationSumIn
2013-1-1,59.9,53.7,43.2,57.3,50.4,40.7,92,89,81,30.14,29.93,14,2,0,1.31
2013-1-2,43.0,39.4,35.8,40.5,35.5,30.5,91,86,81,30.26,30.12,14,3,0,0.02
2013-1-3,45.5,38.0,32.9,30.8,28.2,26.3,82,68,52,30.41,30.24,12,3,0,0.00
2013-1-4,53.2,42.2,32.9,33.0,29.5,26.8,78,62,41,30.49,30.36,10,2,0,0.00
2013-1-5,47.1,42.8,39.6,39.4,35.3,31.1,87,75,62,30.40,30.26,10,1,0,0.14
2013-1-6,52.0,44.5,40.8,42.3,39.3,36.2,91,82,66,30.33,30.22,18,3,0,0.08
2013-1-7,54.7,44.2,34.0,39.9,35.8,30.4,88,74,55,30.36,30.19,14,2,0,0.02
2013-1-8,62.6,54.0,45.1,55.3,47.2,36.3,90,78,69,30.24,30.11,12,2,0,0.22
2013-1-9,65.5,61.0,55.9,63.4,58.6,53.1,93,92,90,30.22,30.11,17,2,0,1.02
2013-1-10,67.1,64.6,61.3,64.7,62.2,58.8,93,92,89,30.20,29.95,23,4,0,1.00
2013-1-11,69.4,66.2,62.6,65.6,62.9,59.7,92,89,85,30.11,30.00,12,1,0,0.06
2013-1-12,75.7,70.4,67.8,67.5,65.4,63.5,92,84,72,30.06,29.90,18,4,0,0.02
2013-1-13,74.8,60.5,41.5,68.0,56.0,39.1,91,85,67,30.14,29.83,18,4,0,0.45
2013-1-14,41.9,37.9,33.4,39.5,35.6,31.0,92,91,91,30.20,30.09,15,7,0,0.41
2013-1-15,39.9,37.0,33.8,37.8,34.9,31.6,93,92,92,30.12,29.99,13,3,0,0.53
2013-1-16,35.2,33.8,33.1,33.1,31.6,31.0,92,92,92,30.16,30.04,15,2,0,0.98
2013-1-17,47.5,38.2,32.2,37.2,33.4,30.1,93,83,64,30.44,30.12,22,4,0,0.12
2013-1-18,54.1,41.9,31.8,36.1,32.0,28.7,89,70,42,30.55,30.39,12,2,0,0.02
2013-1-19,60.6,45.9,33.6,45.8,37.6,28.6,84,73,57,30.39,30.24,9,0,0,0.00
2013-1-20,60.4,48.5,37.2,42.8,38.3,33.1,87,70,46,30.28,30.14,7,0,0,0.00
2013-1-21,62.4,49.3,39.9,45.8,39.0,33.2,83,69,54,30.24,30.14,11,1,0,0.00
2013-1-22,57.9,45.7,36.7,39.3,33.2,27.1,72,62,49,30.38,30.24,13,2,0,0.00
2013-1-23,66.4,55.6,43.5,48.9,44.2,35.4,80,66,51,30.38,30.25,16,2,0,0.00
2013-1-24,72.1,62.1,52.9,58.2,53.0,46.4,81,72,61,30.33,30.20,13,2,0,0.00
2013-1-25,72.7,64.6,55.9,57.8,54.7,50.8,84,71,58,30.22,30.10,18,3,0,0.00
2013-1-26,70.2,61.1,53.2,58.7,53.7,48.5,84,77,64,30.26,30.18,9,1,0,0.00
2013-1-27,71.8,60.7,51.6,57.9,53.3,47.2,88,78,60,30.28,30.18,16,2,0,0.00
2013-1-28,72.9,65.4,59.7,62.3,58.8,54.6,86,79,68,30.26,30.12,14,3,0,0.00
2013-1-29,77.2,70.8,65.3,66.0,63.6,60.7,87,78,65,30.12,29.74,25,5,0,0.00
2013-1-30,72.3,55.6,40.3,65.3,46.3,29.2,91,72,53,30.15,29.66,22,7,0,0.80
2013-1-31,58.1,48.5,37.2,37.5,34.0,29.4,77,59,38,30.31,30.14,13,2,0,0.02
2013-2-1,55.2,47.4,41.2,37.6,30.1,25.5,69,52,36,30.45,30.30,16,3,0,0.00
2013-2-2,66.6,53.0,40.5,48.9,39.1,26.8,68,59,50,30.34,30.16,18,3,0,0.00
2013-2-3,64.0,53.5,42.6,43.6,36.3,30.6,82,55,32,30.29,30.13,15,2,0,0.00
2013-2-4,59.7,53.0,46.2,44.9,37.7,30.7,71,56,46,30.13,29.97,10,1,0,0.00
2013-2-5,61.7,54.9,53.2,54.5,49.0,44.9,86,81,71,30.04,29.94,6,0,0,0.00
2013-2-6,69.8,62.5,54.0,58.5,56.0,51.1,90,80,66,30.15,29.99,10,2,0,0.43
2013-2-7,69.4,61.4,55.0,58.9,55.4,50.2,90,81,66,29.99,29.85,18,2,0,0.61
2013-2-8,62.1,57.2,47.7,56.5,50.7,41.8,86,79,72,30.21,29.96,12,2,0,0.04
2013-2-9,63.1,52.1,38.7,51.9,44.8,34.5,85,76,66,30.25,30.06,15,3,0,0.00
2013-2-10,66.7,61.3,56.5,63.4,58.2,51.3,92,89,83,30.06,29.88,18,4,0,1.41
2013-2-11,60.4,53.3,50.2,58.1,51.1,48.2,93,92,92,30.20,29.98,15,3,0,1.26
2013-2-12,55.2,52.1,49.3,53.2,50.1,47.3,94,93,93,30.11,29.75,20,4,0,0.57
2013-2-13,52.9,47.7,39.7,50.1,41.8,35.3,93,80,65,30.09,29.86,20,5,0,0.02
2013-2-14,55.9,44.9,34.3,41.7,36.6,30.8,89,74,51,30.16,30.06,9,0,0,0.00
2013-2-15,60.1,48.7,37.8,42.3,37.6,33.6,85,67,47,30.20,30.10,14,2,0,0.00
2013-2-16,47.1,41.8,35.4,35.5,24.4,19.1,70,51,36,30.30,30.17,21,5,0,0.00
2013-2-17,58.6,46.0,33.4,38.5,30.9,22.1,68,56,44,30.34,30.18,14,2,0,0.00
2013-2-18,65.1,54.6,45.7,54.5,45.1,36.5,87,71,59,30.21,29.92,25,6,0,0.92
2013-2-19,57.7,50.9,42.3,54.2,38.5,28.8,90,65,38,30.26,29.94,16,4,0,1.16
2013-2-20,55.0,46.5,38.8,30.5,28.2,26.7,64,50,36,30.27,30.06,16,4,0,0.00
2013-2-21,65.8,55.9,45.5,61.7,44.2,26.0,89,66,46,30.08,29.71,22,5,0,1.33
2013-2-22,66.4,56.9,51.8,58.1,50.1,47.0,90,79,51,30.03,29.89,11,2,0,1.26
2013-2-23,62.1,52.5,44.8,49.6,45.3,38.3,89,77,62,30.01,29.88,8,1,0,0.06
2013-2-24,66.6,53.9,39.4,48.4,41.0,34.4,83,64,43,30.04,29.77,12,2,0,0.00
2013-2-25,67.3,60.4,54.3,60.3,56.0,48.2,91,85,73,29.79,29.45,25,3,0,0.53
2013-2-26,58.8,51.9,44.4,50.5,41.5,36.1,75,68,60,29.93,29.53,21,4,0,0.47
2013-2-27,61.7,50.1,37.4,42.7,37.7,32.3,83,64,43,30.05,29.91,9,1,0,0.00
2013-2-28,53.2,45.4,37.9,34.4,30.6,27.8,72,57,40,30.15,30.04,11,1,0,0.00
2013-3-1,50.7,41.9,34.7,34.8,30.2,24.8,80,64,48,30.18,30.08,11,2,0,0.00
2013-3-2,42.1,35.5,30.0,28.0,24.6,21.4,76,65,50,30.26,30.15,11,1,0,0.00
2013-3-3,52.5,39.5,26.2,31.0,24.6,19.8,78,57,36,30.28,30.10,6,0,0,0.00
2013-3-4,67.8,55.7,40.8,52.1,42.9,29.9,73,62,53,30.10,29.88,12,2,0,0.00
2013-3-5,69.3,59.8,46.6,58.9,47.6,29.2,80,65,46,30.22,29.89,14,3,0,0.02
2013-3-6,54.9,45.4,37.6,30.0,27.1,23.6,63,49,37,30.34,30.22,12,2,0,0.02
2013-3-7,63.0,48.2,34.5,37.2,32.1,26.7,74,55,35,30.37,30.23,8,0,0,0.00
2013-3-8,71.1,55.5,40.5,41.0,37.2,31.9,73,52,33,30.33,30.17,7,0,0,0.00
2013-3-9,72.3,62.7,53.8,54.9,47.6,39.6,75,58,44,30.18,29.96,14,2,0,0.00
2013-3-10,74.5,65.8,54.7,61.7,57.6,51.8,90,76,63,29.98,29.83,22,4,0,0.75
2013-3-11,54.3,48.3,41.9,51.1,41.3,35.8,91,78,54,30.04,29.89,19,4,0,1.90
2013-3-12,61.0,49.6,38.1,38.2,35.0,32.2,80,60,37,30.25,30.03,13,2,0,0.02
2013-3-13,58.8,50.7,43.9,36.8,29.4,22.2,71,47,25,30.41,30.24,19,4,0,0.00
2013-3-14,67.1,52.1,38.1,39.3,32.1,26.3,65,48,33,30.45,30.27,10,1,0,0.00
2013-3-15,73.6,63.4,51.4,47.9,44.0,38.4,65,50,39,30.28,30.09,17,4,0,0.00
2013-3-16,75.0,66.0,56.8,54.0,50.6,46.6,71,58,47,30.09,29.92,18,4,0,0.00
2013-3-17,78.8,66.1,54.9,62.0,55.7,48.2,84,70,52,29.98,29.80,12,1,0,0.02
2013-3-18,83.5,63.2,59.7,99.9,66.2,54.9,87,65,52,29.96,29.74,18,4,0,0.22
2013-3-19,70.3,58.6,46.8,54.4,40.7,36.3,84,55,32,30.09,29.97,16,5,0,0.22
2013-3-20,63.9,56.1,49.6,38.5,32.9,25.7,58,43,27,30.19,30.04,15,3,0,0.00
2013-3-21,66.2,53.9,43.5,38.1,31.3,24.3,55,43,32,30.09,29.86,11,2,0,0.00
2013-3-22,59.9,55.8,49.6,51.8,46.4,38.1,87,71,50,29.92,29.80,16,4,0,0.10
2013-3-23,70.2,64.5,58.6,64.0,59.7,51.3,90,84,76,29.86,29.59,14,1,0,0.22
2013-3-24,64.6,54.9,41.4,61.3,45.2,27.9,90,72,44,30.03,29.62,22,5,0,0.26
2013-3-25,52.2,42.7,32.9,27.8,25.0,22.3,73,51,34,30.28,30.04,17,4,0,0.02
2013-3-26,49.6,41.4,34.3,26.8,24.9,22.8,65,53,39,30.39,30.28,15,3,0,0.00
2013-3-27,59.5,46.1,33.1,34.5,28.6,24.9,73,52,34,30.44,30.27,8,0,0,0.00
2013-3-28,68.7,55.8,40.3,40.4,35.4,29.4,72,48,29,30.37,30.22,8,0,0,0.00
2013-3-29,75.9,63.5,48.0,50.6,44.9,38.5,72,52,38,30.30,30.17,14,1,0,0.00
2013-3-30,76.3,67.2,57.6,55.2,52.6,48.2,72,60,47,30.19,29.99,20,3,0,0.00
2013-3-31,73.0,64.0,57.6,59.8,56.0,53.3,90,76,62,30.04,29.83,16,2,0,0.29
2013-4-1,71.2,61.6,52.9,57.4,52.9,50.0,91,75,50,30.12,29.96,10,1,0,0.08
2013-4-2,79.3,65.8,51.6,54.5,50.3,45.3,80,59,40,30.14,29.99,15,2,0,0.00
2013-4-3,66.9,52.0,47.7,52.4,46.8,44.8,91,83,58,30.05,29.89,20,6,0,0.73
2013-4-4,52.3,48.7,45.0,49.2,45.5,41.7,92,89,83,30.05,29.94,14,2,0,0.02
2013-4-5,62.4,51.7,43.5,49.8,44.9,40.2,90,78,59,30.20,30.05,13,2,0,0.00
2013-4-6,72.1,59.4,45.0,52.3,47.3,40.4,85,66,46,30.16,30.02,14,2,0,0.00
2013-4-7,77.7,66.8,54.3,57.7,54.5,49.1,84,66,48,30.11,29.97,16,2,0,0.00
2013-4-8,81.3,71.1,61.9,63.8,60.0,56.3,84,69,51,30.03,29.94,22,4,0,0.00
2013-4-9,85.1,76.0,70.9,69.4,66.4,63.2,81,73,57,30.02,29.91,21,5,0,0.00
2013-4-10,84.6,77.1,71.8,69.1,67.0,65.3,81,72,59,29.98,29.81,22,5,0,0.00
2013-4-11,74.7,62.3,48.4,68.3,57.2,44.7,91,84,70,29.87,29.66,19,3,0,0.53
2013-4-12,70.0,56.8,44.4,48.6,44.4,40.8,88,66,40,30.03,29.86,13,1,0,0.02
2013-4-13,78.4,65.0,50.9,49.4,46.8,43.1,77,54,35,30.08,29.90,13,2,0,0.00
2013-4-14,74.8,64.1,55.9,61.8,56.6,47.4,91,77,58,29.92,29.75,25,3,0,1.24
2013-4-15,83.1,71.5,59.7,70.1,63.6,55.6,87,77,62,29.99,29.83,16,2,0,0.02
2013-4-16,87.4,78.4,72.0,71.1,69.0,67.5,87,74,56,30.10,29.98,17,3,0,0.00
2013-4-17,86.7,78.1,71.2,70.2,67.7,66.0,84,71,55,30.10,29.95,28,4,0,0.00
2013-4-18,85.6,76.1,57.2,70.2,66.6,53.3,88,73,60,29.97,29.76,20,6,0,0.22
2013-4-19,59.4,52.2,45.7,53.8,41.6,36.4,90,69,48,30.20,29.89,20,3,0,0.67
2013-4-20,66.7,55.7,42.3,41.5,38.7,35.7,81,55,38,30.28,30.14,16,3,0,0.00
2013-4-21,70.9,59.4,46.6,44.3,41.0,37.5,72,52,36,30.25,30.12,13,2,0,0.00
2013-4-22,77.7,65.2,50.2,56.3,48.7,41.8,74,57,40,30.17,30.01,16,2,0,0.00
2013-4-23,83.7,73.4,65.7,64.4,61.1,56.2,75,66,51,30.09,29.97,16,3,0,0.00
2013-4-24,72.1,61.9,52.2,63.5,56.0,46.5,91,81,74,30.25,30.00,20,2,0,1.00
2013-4-25,68.9,57.3,48.4,48.6,45.4,42.8,85,67,42,30.35,30.23,18,4,0,0.12
2013-4-26,81.3,66.6,52.5,61.3,51.5,41.7,71,59,47,30.30,30.19,12,2,0,0.00
2013-4-27,84.4,74.6,64.8,67.2,63.6,57.7,83,69,56,30.20,30.02,14,2,0,0.00
2013-4-28,80.2,73.2,66.0,67.9,63.9,59.7,82,73,61,30.07,29.95,21,2,0,0.06
2013-4-29,84.7,72.3,58.8,64.1,59.3,53.7,85,66,43,30.01,29.89,11,0,0,0.02
2013-4-30,83.3,70.4,63.3,67.0,62.2,57.7,86,76,57,29.96,29.88,14,1,0,0.24
2013-5-1,81.1,69.9,64.2,69.3,63.4,59.5,88,80,61,29.95,29.87,21,4,0,0.20
2013-5-2,75.2,67.4,63.7,65.7,62.5,59.8,89,84,72,30.00,29.88,12,2,0,0.08
2013-5-3,66.2,55.3,43.5,62.5,51.2,39.8,90,86,79,30.05,29.91,17,2,0,0.49
2013-5-4,67.1,54.6,40.1,46.9,42.8,36.5,88,67,44,30.04,29.86,20,2,0,0.04
2013-5-5,61.0,54.2,45.7,45.5,42.4,39.1,78,65,50,30.03,29.88,16,2,0,0.00
2013-5-6,72.3,61.5,52.3,53.3,48.6,42.0,78,63,50,30.03,29.94,19,4,0,0.00
2013-5-7,79.9,67.2,53.8,58.1,54.6,48.4,85,66,47,30.07,29.98,14,2,0,0.00
2013-5-8,84.2,71.9,57.7,60.8,57.5,51.9,82,63,43,30.12,30.03,10,1,0,0.00
2013-5-9,87.1,75.1,64.0,65.4,61.7,57.0,81,65,45,30.14,30.02,14,2,0,0.00
2013-5-10,80.2,71.2,63.1,67.1,63.9,60.5,91,78,64,30.07,29.89,19,2,0,1.67
2013-5-11,81.9,71.2,63.5,67.3,62.2,58.6,84,74,60,30.09,29.95,14,1,0,0.04
2013-5-12,76.3,66.3,57.7,59.2,53.6,42.6,84,65,47,30.20,30.07,12,2,0,0.00
2013-5-13,77.4,65.7,50.9,51.5,46.0,41.0,69,50,37,30.31,30.18,14,1,0,0.00
2013-5-14,83.5,72.6,58.6,58.3,55.0,48.7,72,55,40,30.28,30.14,14,2,0,0.00
2013-5-15,87.4,75.1,62.4,62.5,58.2,52.2,71,57,43,30.21,30.03,14,2,0,0.00
2013-5-16,86.2,74.0,63.0,65.1,61.0,55.7,79,65,47,30.05,29.89,22,2,0,0.06
2013-5-17,88.7,78.8,71.4,71.0,68.0,63.0,82,70,55,30.02,29.94,11,2,0,0.02
2013-5-18,92.3,81.7,73.9,72.6,69.6,67.1,81,68,52,30.07,29.98,15,2,0,0.00
2013-5-19,91.2,81.1,72.3,72.0,69.5,66.1,84,69,52,30.03,29.94,19,2,0,0.00
2013-5-20,92.7,82.5,74.8,72.5,70.5,68.7,81,68,51,30.03,29.90,18,4,0,0.00
2013-5-21,93.6,82.8,73.9,71.5,69.9,68.7,84,67,47,29.99,29.81,16,3,0,0.00
2013-5-22,83.3,74.5,65.3,70.2,66.7,62.2,91,78,63,29.99,29.87,22,2,0,1.14
2013-5-23,90.9,81.1,69.4,73.1,68.9,63.7,84,68,51,30.08,29.97,12,1,0,0.02
2013-5-24,86.2,77.9,70.5,69.8,65.8,59.8,85,67,53,30.21,30.06,16,3,0,0.00
2013-5-25,84.9,73.9,61.5,59.2,55.2,51.3,69,53,39,30.28,30.16,15,2,0,0.00
2013-5-26,91.9,77.9,65.1,64.5,59.7,54.2,75,56,34,30.22,30.11,10,1,0,0.00
2013-5-27,88.5,77.8,66.9,68.4,63.7,58.9,76,63,47,30.15,30.02,15,2,0,0.00
2013-5-28,89.2,79.2,67.8,67.7,64.2,60.7,79,61,46,30.09,30.00,14,2,0,0.00
2013-5-29,90.5,78.5,70.7,74.9,68.9,60.6,84,73,55,30.05,29.95,13,2,0,0.39
2013-5-30,89.8,79.6,74.3,74.8,71.1,68.9,85,76,58,30.04,29.95,18,3,0,0.14
2013-5-31,92.1,82.7,74.5,76.8,72.4,69.6,86,72,56,30.03,29.93,22,3,0,0.04
2013-6-1,95.2,84.1,76.1,74.3,72.0,70.2,83,68,50,30.00,29.91,14,2,0,0.00
2013-6-2,83.8,76.1,67.5,72.6,68.7,64.5,92,79,64,30.05,29.90,20,2,0,1.28
2013-6-3,86.2,78.4,70.9,72.1,68.9,66.8,88,74,59,29.97,29.88,13,3,0,0.10
2013-6-4,95.4,83.3,70.9,75.1,70.4,65.4,84,67,47,29.98,29.87,10,2,0,0.00
2013-6-5,93.9,82.5,75.0,75.9,72.6,69.1,86,73,55,29.97,29.77,14,1,0,0.00
2013-6-6,91.2,78.1,71.4,74.8,69.5,64.9,84,76,57,29.91,29.79,19,2,0,0.00
2013-6-7,86.2,76.1,69.6,70.5,67.1,64.7,86,75,57,29.93,29.80,10,1,0,0.00
2013-6-8,91.9,79.9,68.5,71.7,68.0,63.5,85,68,51,29.99,29.91,9,1,0,0.00
2013-6-9,91.0,81.0,71.1,74.2,69.9,65.3,84,70,55,30.00,29.90,22,2,0,0.00
2013-6-10,92.1,83.2,73.9,73.1,70.5,66.4,79,67,51,30.04,29.97,11,2,0,0.00
2013-6-11,95.0,86.1,75.9,75.3,72.9,69.7,82,66,51,30.13,30.02,13,1,0,0.00
2013-6-12,96.4,88.5,80.4,75.6,73.3,71.5,76,62,47,30.12,30.02,11,2,0,0.00
2013-6-13,95.0,88.3,79.9,75.8,73.6,70.8,75,63,50,30.07,29.91,16,3,0,0.00
2013-6-14,87.6,82.9,74.8,74.4,69.3,63.1,83,64,51,29.99,29.91,14,4,0,0.00
2013-6-15,95.7,82.8,69.1,70.0,66.5,61.2,77,59,42,30.05,29.96,12,1,0,0.00
2013-6-16,95.5,84.3,75.4,76.9,72.8,68.7,81,69,53,30.08,29.99,11,1,0,0.00
2013-6-17,93.4,85.7,74.7,75.4,72.7,69.2,86,66,51,30.04,29.93,16,3,0,0.00
2013-6-18,92.8,83.3,70.9,74.5,71.5,66.3,88,69,53,30.03,29.92,20,4,0,0.00
2013-6-19,90.7,79.6,71.2,72.9,70.2,67.0,88,74,53,30.06,29.96,10,1,0,0.00
2013-6-20,91.2,82.0,73.0,74.1,70.8,66.8,88,70,53,30.14,30.03,13,1,0,0.00
2013-6-21,93.9,84.0,71.8,73.1,69.9,65.6,83,64,47,30.16,30.07,10,1,0,0.00
2013-6-22,95.4,83.8,73.9,73.2,69.9,67.8,83,64,43,30.14,30.03,14,1,0,0.00
2013-6-23,94.8,84.5,73.0,74.0,70.1,66.9,82,64,44,30.11,30.02,11,1,0,0.00
2013-6-24,93.6,81.7,74.1,75.6,71.6,68.7,85,72,53,30.15,30.05,15,1,0,0.00
2013-6-25,95.7,82.8,73.9,75.2,72.1,69.3,86,71,50,30.13,30.01,13,1,0,0.00
2013-6-26,93.0,85.3,76.3,73.8,72.1,70.4,85,66,50,30.09,29.96,14,2,0,0.00
2013-6-27,95.4,87.0,79.3,74.3,72.5,70.0,78,63,49,30.05,29.93,16,2,0,0.00
2013-6-28,94.1,87.0,81.1,75.1,73.2,67.4,74,64,53,29.97,29.78,21,3,0,0.00
2013-6-29,93.6,84.3,74.5,75.9,70.5,65.2,77,64,50,29.84,29.72,13,2,0,0.00
2013-6-30,89.1,81.2,73.0,69.1,65.3,60.8,78,60,40,29.85,29.75,15,2,0,0.00
2013-7-1,86.4,78.6,68.5,65.8,63.4,60.8,78,61,47,29.95,29.84,14,1,0,0.00
2013-7-2,88.3,79.4,68.9,67.3,63.4,60.8,79,60,43,30.04,29.94,15,2,0,0.00
2013-7-3,88.3,78.5,69.4,68.7,64.9,59.8,78,64,46,30.07,29.97,15,2,0,0.00
2013-7-4,87.4,78.9,69.6,71.0,68.0,64.8,86,70,54,30.01,29.94,18,2,0,0.00
2013-7-5,88.2,79.0,73.0,73.5,69.5,66.0,81,73,61,30.05,29.98,14,2,0,0.00
2013-7-6,90.3,78.4,70.9,72.5,69.2,65.8,87,75,53,30.06,29.97,11,1,0,0.00
2013-7-7,92.5,80.5,74.3,75.0,71.8,69.0,89,76,53,30.12,30.01,16,2,0,0.00
2013-7-8,95.2,81.7,72.5,75.0,71.7,68.9,89,73,50,30.19,30.09,10,1,0,0.00
2013-7-9,95.4,82.9,75.9,75.4,72.5,68.9,82,72,52,30.21,30.09,18,1,0,0.00
2013-7-10,94.3,84.8,77.5,75.4,73.1,70.9,81,69,53,30.13,29.98,16,3,0,0.00
2013-7-11,93.4,80.3,72.0,77.0,72.3,67.9,90,77,55,30.04,29.93,18,3,0,0.00
2013-7-12,88.9,80.5,72.3,74.0,69.4,64.5,86,70,49,29.98,29.90,43,6,0,0.00
2013-7-13,90.3,80.1,70.5,70.9,66.7,63.2,79,65,51,29.99,29.93,100,14,0,0.00
2013-7-14,91.9,79.8,71.4,74.1,69.2,64.5,83,71,53,30.05,29.94,100,9,0,0.00
2013-7-15,92.3,80.7,70.5,74.0,69.8,65.6,86,71,52,30.16,30.03,100,10,0,0.00
2013-7-16,89.8,79.6,71.8,74.8,71.2,67.7,90,77,57,30.23,30.12,43,12,0,0.00
2013-7-17,93.4,81.9,72.1,75.2,72.0,69.4,92,74,54,30.26,30.14,100,8,0,0.00
2013-7-18,92.5,79.7,72.5,74.4,70.0,66.7,84,73,55,30.20,30.05,100,6,0,0.00
2013-7-19,93.0,81.6,70.9,75.1,70.5,66.4,87,71,49,30.11,29.97,43,4,0,0.00
2013-7-20,93.6,81.1,73.6,75.0,70.7,67.1,83,72,52,30.02,29.94,43,2,0,0.00
2013-7-21,89.4,80.9,72.7,74.4,71.2,66.7,86,73,56,30.06,29.99,43,3,0,0.00
2013-7-22,91.8,81.8,77.9,75.4,71.9,69.8,79,72,56,30.06,29.99,43,4,0,0.00
2013-7-23,91.0,84.4,78.3,75.0,73.2,71.6,82,70,55,30.06,29.91,20,6,0,0.00
2013-7-24,91.9,83.9,75.9,74.8,73.1,71.5,86,71,54,29.99,29.90,16,4,0,0.00
2013-7-25,91.2,81.2,73.6,74.1,70.1,64.6,88,70,50,30.07,29.94,12,2,0,0.00
2013-7-26,93.0,81.9,69.6,71.7,68.1,63.5,82,64,48,30.09,29.98,9,1,0,0.00
2013-7-27,87.4,80.6,75.0,75.4,72.3,69.9,86,76,64,29.99,29.87,14,2,0,0.00
2013-7-28,90.0,81.0,72.0,73.1,71.0,68.2,89,73,54,30.04,29.92,9,1,0,0.00
2013-7-29,94.8,84.5,73.9,74.3,72.2,69.8,87,68,49,30.14,30.03,12,1,0,0.00
2013-7-30,97.3,87.3,77.7,76.8,74.3,71.6,82,67,48,30.17,30.07,14,0,0,0.00
2013-7-31,94.6,88.3,82.0,75.0,72.2,66.9,73,60,41,30.12,29.98,15,2,0,0.00
2013-8-1,96.6,87.0,81.0,75.8,73.0,70.0,72,64,49,30.05,29.93,14,2,0,0.00
2013-8-2,97.9,87.0,76.1,75.2,73.0,70.2,82,64,46,30.03,29.96,14,1,0,0.00
2013-8-3,98.8,87.1,80.4,75.0,73.1,70.7,74,64,46,30.09,30.01,14,1,0,0.00
2013-8-4,98.2,87.3,79.0,76.1,72.6,69.7,77,63,42,30.12,30.00,14,2,0,0.00
2013-8-5,97.3,87.9,80.6,76.6,73.6,72.0,77,64,47,30.07,29.96,16,2,0,0.00
2013-8-6,97.2,89.1,81.5,74.9,72.8,70.6,75,60,45,30.03,29.91,14,3,0,0.00
2013-8-7,98.8,90.0,82.2,75.4,72.6,70.0,74,58,40,30.01,29.90,14,2,0,0.00
2013-8-8,99.3,89.1,79.9,75.2,72.9,70.9,75,60,44,30.00,29.89,12,1,0,0.00
2013-8-9,97.3,86.7,78.6,99.9,73.9,72.1,81,66,46,30.07,29.96,14,1,0,0.00
2013-8-10,96.1,85.0,77.5,76.5,73.4,71.2,86,70,48,30.11,30.02,12,1,0,0.00
2013-8-11,94.8,83.8,75.0,75.8,72.4,70.6,87,70,47,30.15,30.07,16,1,0,0.00
2013-8-12,95.4,82.6,74.5,75.1,71.9,69.5,87,72,48,30.13,30.01,20,2,0,0.00
2013-8-13,92.3,79.5,74.1,75.9,72.1,68.8,92,79,57,30.07,29.95,18,3,0,0.00
2013-8-14,83.7,75.8,70.9,75.0,71.5,68.4,93,86,74,30.02,29.94,8,0,0,0.00
2013-8-15,86.0,77.1,68.0,71.4,67.7,64.6,89,74,55,30.04,29.95,9,2,0,0.00
2013-8-16,88.2,78.4,68.5,71.7,67.1,63.0,84,69,51,30.03,29.94,13,1,0,0.00
2013-8-17,82.4,74.9,69.6,70.8,68.0,66.0,89,79,64,30.03,29.98,12,2,0,0.00
2013-8-18,80.4,73.1,67.8,70.4,67.6,65.1,92,83,69,30.07,29.99,16,5,0,0.00
2013-8-19,85.8,77.4,71.4,72.1,69.6,67.9,89,78,60,30.09,30.00,8,1,0,0.00
2013-8-20,91.9,79.9,70.9,73.5,70.5,67.5,90,75,48,30.10,30.01,12,0,0,0.00
2013-8-21,87.1,79.3,72.5,76.1,72.0,68.8,90,79,61,30.17,30.07,10,0,0,0.00
2013-8-22,90.1,81.6,73.6,74.6,72.4,69.6,90,75,55,30.13,30.00,11,1,0,0.00
2013-8-23,91.0,82.7,73.6,74.7,71.6,69.3,89,70,52,30.05,29.96,14,2,0,0.00
2013-8-24,89.8,79.5,72.1,72.7,70.5,68.6,90,75,56,30.15,30.02,19,2,0,0.00
2013-8-25,88.3,79.9,70.5,73.0,70.7,67.1,90,74,58,30.22,30.11,18,2,0,0.00
2013-8-26,88.5,79.5,72.0,69.9,67.2,63.1,90,68,45,30.24,30.13,13,2,0,0.00
2013-8-27,85.5,76.9,66.7,64.3,62.7,60.4,83,63,46,30.18,30.06,11,1,0,0.00
2013-8-28,86.2,77.5,66.0,65.9,63.3,60.7,84,63,45,30.14,30.04,14,1,0,0.00
2013-8-29,89.4,80.3,69.6,68.0,65.2,63.2,81,62,44,30.11,30.01,7,0,0,0.00
2013-8-30,92.8,83.4,72.3,70.0,67.8,64.7,77,60,46,30.07,29.95,14,0,0,0.00
2013-8-31,93.4,85.7,78.1,71.9,70.2,67.5,73,61,48,30.01,29.89,12,1,0,0.00
2013-9-1,95.2,85.8,77.5,72.9,70.8,68.4,76,62,45,29.98,29.87,15,2,0,0.00
2013-9-2,93.7,84.0,76.8,74.0,72.0,68.4,82,68,49,30.00,29.89,14,2,0,0.00
2013-9-3,90.7,83.1,73.9,76.4,72.9,69.2,86,72,58,30.03,29.89,18,1,0,0.00
2013-9-4,92.1,82.4,72.0,74.2,70.6,67.4,90,70,46,30.10,29.98,14,1,0,0.00
2013-9-5,93.9,83.7,73.2,74.8,71.4,67.1,88,68,44,30.14,30.03,13,1,0,0.00
2013-9-6,93.6,83.5,73.9,74.3,71.7,69.3,87,69,49,30.14,30.01,8,1,0,0.00
2013-9-7,91.6,83.0,73.2,71.4,69.2,64.3,86,65,41,30.09,29.97,14,0,0,0.00
2013-9-8,92.1,82.8,71.4,70.7,67.7,65.5,84,62,43,30.04,29.95,9,1,0,0.00
2013-9-9,94.3,83.5,71.2,70.0,67.7,65.1,82,61,41,30.09,29.99,10,1,0,0.00
2013-9-10,94.1,83.1,72.9,71.6,69.1,67.1,83,64,45,30.15,30.04,14,1,0,0.00
2013-9-11,92.8,82.6,72.5,70.9,68.7,66.6,88,65,44,30.17,30.05,12,1,0,0.00
2013-9-12,91.9,82.5,70.9,70.8,66.4,62.6,86,60,39,30.09,29.93,11,1,0,0.00
2013-9-13,93.4,82.2,75.0,72.2,68.7,64.8,81,65,43,29.97,29.86,12,1,0,0.00
2013-9-14,86.9,76.4,66.0,68.4,61.9,58.3,83,62,44,30.01,29.92,10,3,0,0.00
2013-9-15,92.1,80.1,66.4,67.6,63.3,57.0,72,58,44,30.10,30.01,14,1,0,0.00
2013-9-16,91.2,82.4,73.2,71.7,68.1,65.6,83,64,44,30.12,30.02,14,2,0,0.00
2013-9-17,91.8,81.8,70.9,66.6,64.3,61.5,80,58,38,30.12,29.99,17,1,0,0.00
2013-9-18,91.8,80.9,73.6,71.4,67.4,61.7,78,65,48,30.11,30.00,13,1,0,0.00
2013-9-19,92.3,79.3,71.1,74.8,70.3,67.0,88,75,50,30.08,29.97,16,1,0,0.00
2013-9-20,91.2,80.1,74.8,75.5,72.4,70.2,89,78,56,30.03,29.83,12,1,0,0.00
2013-9-21,76.6,71.4,69.4,73.0,68.4,65.0,93,90,86,29.84,29.79,16,3,0,0.00
2013-9-22,76.8,67.9,59.4,65.0,57.3,53.3,88,70,46,29.89,29.80,16,5,0,0.00
2013-9-23,86.2,73.0,59.5,70.8,63.6,54.0,83,73,58,29.89,29.82,12,1,0,0.00
2013-9-24,84.0,75.3,70.7,76.3,71.4,67.6,92,88,76,29.88,29.80,10,1,0,0.00
2013-9-25,83.1,75.7,69.4,69.8,65.1,60.5,92,71,47,29.86,29.80,17,1,0,0.00
2013-9-26,83.5,74.0,63.9,65.1,62.7,59.6,87,70,49,29.98,29.85,12,1,0,0.00
2013-9-27,84.9,75.8,68.7,68.5,66.4,63.6,91,74,54,30.06,29.97,15,1,0,0.00
2013-9-28,84.0,75.2,67.3,65.4,62.7,59.2,81,66,47,30.11,30.01,14,1,0,0.00
2013-9-29,78.4,71.5,65.8,68.2,64.4,59.1,85,78,69,30.07,29.97,7,0,0,0.00
2013-9-30,85.1,73.8,67.1,73.0,67.9,62.7,90,82,64,29.99,29.91,7,0,0,0.00
2013-10-1,85.8,76.2,68.0,70.9,68.2,65.1,91,77,59,30.07,29.97,10,1,0,0.00
2013-10-2,85.3,76.3,70.0,72.3,68.9,66.9,90,79,61,30.09,29.98,15,1,0,0.00
2013-10-3,86.9,78.4,72.1,73.9,70.6,68.5,89,78,59,30.06,29.96,14,1,0,0.00
2013-10-4,88.9,78.3,71.2,72.0,69.6,67.7,90,76,54,30.07,29.98,17,2,0,0.00
2013-10-5,87.1,77.9,72.1,73.8,70.5,68.3,90,79,61,30.04,29.91,13,2,0,0.00
2013-10-6,74.7,68.4,57.7,69.4,62.1,51.3,92,81,67,29.99,29.88,12,1,0,0.00
2013-10-7,70.5,60.9,52.7,54.5,50.9,48.2,85,71,54,30.08,29.98,14,2,0,0.00
2013-10-8,72.0,61.4,52.0,54.3,51.2,48.1,87,71,49,30.09,30.01,10,1,0,0.00
2013-10-9,78.6,66.0,53.4,64.1,57.4,49.6,88,75,53,30.12,30.03,11,0,0,0.00
2013-10-10,70.3,56.2,65.5,99.9,68.7,62.1,91,75,84,30.14,30.09,6,0,0,0.00
2013-10-11,78.6,74.6,71.4,68.1,67.4,66.7,85,78,68,30.02,29.98,0,0,0,0.00
2013-10-12,87.8,75.9,66.4,72.1,67.6,63.0,90,77,52,30.11,30.01,14,1,0,0.00
2013-10-13,86.7,76.2,68.5,71.2,67.7,65.5,90,76,54,30.20,30.08,12,1,0,0.00
2013-10-14,84.2,74.1,64.9,66.6,63.3,61.3,88,71,49,30.16,30.04,10,1,0,0.00
2013-10-15,85.8,74.9,65.3,67.6,64.2,60.3,85,71,52,30.08,29.95,12,1,0,0.00
2013-10-16,84.4,75.6,70.0,70.4,68.2,65.1,90,78,63,30.01,29.91,17,1,0,0.00
2013-10-17,70.0,63.5,56.5,66.9,60.0,53.9,93,88,81,30.05,29.93,10,0,0,0.00
2013-10-18,73.4,62.1,52.3,57.9,54.4,49.8,92,77,56,30.09,29.95,15,1,0,0.00
2013-10-19,73.2,62.6,52.5,60.1,56.0,48.7,90,80,61,30.08,29.93,10,1,0,0.00
2013-10-20,68.4,56.3,45.7,49.9,46.7,43.0,90,72,45,30.11,30.01,10,1,0,0.00
2013-10-21,75.4,61.3,49.3,59.9,53.5,45.5,88,77,54,30.09,29.97,8,0,0,0.00
2013-10-22,74.5,63.5,55.6,61.4,56.7,51.1,91,79,59,30.03,29.97,10,0,0,0.00
2013-10-23,70.0,60.2,52.2,51.9,46.8,42.1,84,64,38,30.16,30.03,18,2,0,0.00
2013-10-24,75.0,61.2,48.7,55.2,49.4,41.8,83,67,49,30.27,30.12,14,2,0,0.00
2013-10-25,62.4,54.0,46.0,49.3,40.1,36.5,78,61,41,30.44,30.27,18,5,0,0.00
2013-10-26,70.3,56.2,43.7,50.5,43.1,35.9,78,63,42,30.33,30.14,14,0,0,0.00
2013-10-27,70.9,61.8,51.6,57.4,52.8,45.3,85,73,58,30.17,30.06,11,1,0,0.00
2013-10-28,78.6,68.4,59.5,65.7,61.4,56.7,90,79,63,30.21,30.08,14,1,0,0.00
2013-10-29,80.4,69.3,60.4,65.4,61.2,57.6,90,77,55,30.25,30.16,14,1,0,0.00
2013-10-30,78.1,69.6,63.1,66.9,63.6,59.8,90,82,68,30.22,30.03,14,1,0,0.00
2013-10-31,74.1,70.4,66.2,69.1,66.6,62.5,93,88,82,30.03,29.80,23,5,0,0.00
2013-11-1,71.4,63.8,54.1,62.3,54.6,48.5,91,74,46,29.96,29.85,11,1,0,0.00
2013-11-2,67.3,58.0,49.1,51.8,46.4,41.3,86,67,43,30.20,29.95,17,2,0,0.00
2013-11-3,63.3,52.3,43.5,45.5,42.2,38.4,82,70,47,30.27,30.13,16,2,0,0.00
2013-11-4,68.2,57.0,45.5,54.3,48.5,41.1,85,74,57,30.28,30.18,18,1,0,0.00
2013-11-5,74.5,64.1,58.5,58.9,55.1,50.9,85,73,57,30.24,30.13,17,3,0,0.00
2013-11-6,80.8,67.5,57.0,68.5,61.0,52.0,91,80,63,30.15,30.05,15,2,0,0.12
2013-11-7,64.2,52.2,43.5,61.6,43.3,36.8,91,73,48,30.36,30.13,20,4,0,0.12
2013-11-8,61.0,50.4,40.8,43.1,38.2,34.5,82,64,43,30.37,30.21,15,3,0,0.00
2013-11-9,67.8,56.7,47.1,48.3,43.8,38.5,79,63,44,30.27,30.18,8,1,0,0.00
2013-11-10,70.7,59.2,52.2,52.3,48.5,45.1,84,69,43,30.32,30.22,14,2,0,0.00
2013-11-11,71.2,58.7,47.5,51.1,48.3,43.5,86,70,47,30.27,30.16,7,0,0,0.00
2013-11-12,62.1,49.6,34.0,51.7,41.8,27.1,84,75,65,30.54,30.21,17,3,0,0.00
2013-11-13,51.6,39.5,30.0,27.1,24.3,21.9,78,56,32,30.58,30.41,18,5,0,0.00
2013-11-14,59.5,46.1,30.7,43.2,34.2,23.1,74,64,52,30.42,30.16,11,1,0,0.00
2013-11-15,67.8,58.1,49.8,61.2,52.2,41.0,91,81,67,30.16,30.00,11,1,0,0.00
2013-11-16,76.8,67.5,59.7,66.6,62.4,56.5,92,84,69,30.07,29.95,16,2,0,0.00
2013-11-17,78.4,72.7,68.2,70.4,67.6,64.8,89,84,76,29.98,29.86,20,3,0,0.00
2013-11-18,74.5,66.5,53.4,69.5,46.4,34.3,90,51,25,30.16,29.97,21,6,0,0.00
2013-11-19,61.0,51.9,42.6,39.1,32.4,26.7,63,49,30,30.21,30.10,20,6,0,0.00
2013-11-20,66.4,52.3,38.8,45.7,38.9,30.7,80,62,43,30.14,30.05,11,1,0,0.00
2013-11-21,68.2,60.4,51.4,61.5,55.5,45.7,89,84,77,30.22,30.12,11,1,0,0.00
2013-11-22,68.5,64.5,59.0,66.1,61.7,56.7,94,90,81,30.29,30.17,28,2,0,0.04
2013-11-23,59.0,50.4,40.6,56.5,47.2,33.6,93,89,76,30.40,30.21,23,5,0,0.04
2013-11-24,47.3,39.5,33.6,33.3,25.6,23.3,75,58,41,30.47,30.32,18,8,0,0.00
2013-11-25,42.6,40.1,36.5,40.7,34.0,23.8,93,80,58,30.33,29.98,15,4,0,0.00
2013-11-26,45.7,41.6,37.0,43.8,39.7,34.6,93,93,91,30.09,29.79,15,4,0,0.37
2013-11-27,42.4,35.4,28.0,34.8,26.9,21.8,92,72,49,30.42,30.09,18,3,0,0.00
2013-11-28,47.8,35.5,26.1,32.6,25.5,20.2,82,68,45,30.49,30.39,8,0,0,0.00
2013-11-29,55.2,40.4,29.1,31.7,28.3,25.0,85,65,36,30.55,30.43,10,1,0,0.00
2013-11-30,60.1,44.6,31.6,36.7,31.9,27.1,83,64,36,30.46,30.26,6,0,0,0.00
2013-12-1,67.8,53.0,37.8,50.0,43.1,32.4,81,70,51,30.28,30.00,11,1,0,0.00
2013-12-2,70.7,61.8,54.3,59.7,53.8,47.2,89,75,66,30.00,29.74,19,2,0,0.00
2013-12-3,74.8,67.8,61.3,63.5,60.4,56.8,87,78,65,29.80,29.69,20,3,0,0.00
2013-12-4,79.0,72.4,68.5,67.0,64.9,63.2,86,78,65,29.93,29.79,19,3,0,0.00
2013-12-5,80.4,73.0,55.8,68.9,65.3,50.6,83,77,67,30.01,29.90,19,2,0,0.00
2013-12-6,55.8,44.5,35.2,50.4,41.3,32.8,93,89,83,30.28,29.96,18,2,0,0.00
2013-12-7,36.0,33.9,31.3,33.1,30.5,28.2,91,87,83,30.38,30.26,22,4,0,0.00
2013-12-8,43.5,35.3,35.8,99.9,43.4,33.1,93,82,90,30.27,30.05,14,0,0,0.00
2013-12-9,48.0,43.0,37.0,45.1,40.7,34.9,94,92,87,30.18,30.06,14,2,0,0.00
2013-12-10,45.3,37.4,32.7,34.5,31.7,28.1,93,81,60,30.40,30.15,27,3,0,0.00
2013-12-11,55.9,42.2,30.2,42.9,32.9,26.1,86,71,53,30.46,30.33,15,1,0,0.00
2013-12-12,51.1,39.5,31.5,31.7,25.8,21.8,83,61,32,30.55,30.37,19,3,0,0.00
2013-12-13,57.0,45.7,33.6,47.1,33.5,21.7,79,63,50,30.38,29.92,12,3,0,0.00
2013-12-14,68.9,55.7,43.2,57.3,49.2,36.7,85,79,64,30.13,29.83,17,3,0,0.00
2013-12-15,47.3,40.6,33.3,36.7,32.2,28.9,84,72,62,30.31,30.12,12,2,0,0.00
2013-12-16,57.4,42.2,30.9,39.3,33.1,27.0,86,72,46,30.35,30.23,10,1,0,0.00
2013-12-17,61.7,46.8,33.6,43.1,37.1,29.2,84,71,45,30.33,30.24,12,1,0,0.00
2013-12-18,62.4,49.8,38.5,42.5,38.6,33.9,85,67,46,30.38,30.21,28,1,0,0.00
2013-12-19,68.9,58.0,44.4,55.6,49.2,35.5,80,73,61,30.21,30.03,13,2,0,0.00
2013-12-20,74.3,67.2,61.0,65.4,61.0,54.8,85,81,70,30.05,29.94,28,3,0,0.00
2013-12-21,76.8,70.7,59.2,67.5,64.5,56.9,92,81,73,29.94,29.70,24,6,0,0.00
2013-12-22,66.7,59.4,48.7,59.5,54.7,44.1,92,85,68,30.20,29.83,14,1,0,0.00
2013-12-23,48.7,39.2,30.0,44.1,32.1,25.5,86,76,62,30.49,30.19,17,3,0,0.00
2013-12-24,47.1,35.6,27.9,29.1,25.4,23.4,87,68,42,30.55,30.39,17,2,0,0.00
2013-12-25,50.4,37.5,27.1,29.7,25.5,21.1,78,63,42,30.42,30.30,10,1,0,0.00
2013-12-26,54.7,43.3,32.9,36.4,30.7,25.5,75,62,44,30.41,30.30,16,1,0,0.00
2013-12-27,54.5,45.3,37.0,35.5,32.5,29.8,80,62,44,30.45,30.30,11,1,0,0.00
2013-12-28,46.9,44.9,42.3,44.5,40.0,31.8,93,84,57,30.31,29.97,9,1,0,0.00
2013-12-29,58.5,49.0,43.5,45.0,42.1,40.0,93,78,51,30.15,29.98,8,0,0,0.00
2013-12-30,53.2,46.3,39.6,45.3,40.7,33.9,86,81,73,30.37,30.11,8,0,0,0.00
2013-12-31,47.8,40.9,35.4,35.6,33.5,30.4,83,75,61,30.45,30.30,12,2,0,0.00
2014-1-1,58.8,49.9,41.5,49.6,43.5,35.5,87,79,66,30.30,30.03,9,1,0,0.00
2014-1-2,56.1,46.9,30.9,52.4,38.0,22.6,88,72,51,30.37,29.97,18,3,0,0.00